Wind_Speed
40 41 41 41 42 42 42 42 42 41 42 43 43 42 41 41 42 42 42 42 43 43 43 42 41 41 40 39 38 38 37 37 37 37 38 38 38 38 39 38 37 38 38 38
42 42 41 42 43 44 44 43 43 43 44 44 44 44 42 42 42 42 42 43 43 43 44 43 42 41 40 39 39 38 38 38 37 37 38 38 38 38 38 37 37 38 38 39
42 41 41 42 43 44 44 44 44 44 44 45 45 44 42 42 42 42 42 42 43 43 44 44 42 41 40 40 39 39 38 38 38 38 38 38 38 38 38 37 37 37 38 38
40 40 40 41 42 43 43 43 43 44 44 44 44 44 42 41 41 41 40 40 42 43 44 44 43 42 41 40 40 40 39 38 38 37 38 38 38 38 37 37 37 37 37 38
38 38 39 39 40 41 42 41 42 42 43 44 43 44 42 41 40 39 39 39 40 41 41 42 43 42 41 40 40 40 39 38 37 37 38 38 38 38 38 38 38 37 37 37
37 37 37 37 38 39 40 40 40 41 42 43 41 42 42 40 39 38 38 38 38 39 40 40 41 42 41 40 40 40 39 38 38 38 38 38 38 38 38 37 38 37 37 37
34 34 35 35 35 37 37 37 38 39 40 42 40 42 42 39 38 38 38 38 38 37 38 40 40 41 41 41 41 40 40 39 39 38 38 38 38 38 38 37 38 38 38 37
30 31 33 34 34 34 34 35 36 37 38 39 39 40 39 38 37 37 37 37 37 37 37 38 39 40 41 41 41 41 40 40 39 39 39 39 39 39 38 38 38 39 39 38
28 27 29 31 32 33 33 33 33 35 36 37 38 38 37 36 36 37 37 37 36 37 36 37 38 38 39 40 41 41 40 40 40 40 40 39 39 40 39 39 39 39 39 39
26 27 27 28 31 32 33 32 32 33 33 34 35 36 36 35 35 35 36 36 36 36 37 37 37 37 38 39 40 40 40 41 41 41 41 40 40 40 40 40 39 39 39 39
26 27 27 27 29 31 32 32 33 33 34 34 34 34 34 34 34 33 33 34 36 36 36 37 37 37 38 38 39 40 40 40 41 40 41 41 41 41 41 40 40 40 40 40
24 26 27 27 28 30 31 32 33 33 34 34 35 34 32 32 33 33 33 34 35 36 36 37 37 37 38 37 38 39 39 40 40 39 40 41 41 41 41 40 39 40 40 39
23 24 25 26 27 29 31 31 32 32 34 34 35 34 32 32 32 33 33 33 33 34 35 36 38 37 37 37 37 38 38 38 39 39 39 39 39 39 39 39 39 38 39 39
23 24 25 25 26 28 29 30 31 32 33 34 34 33 33 32 32 32 33 33 32 33 33 34 36 36 36 36 37 38 38 39 39 39 39 39 39 39 39 39 39 38 39 39
22 23 23 24 25 27 28 29 29 31 32 33 33 33 32 32 32 31 32 32 32 32 33 33 34 36 36 37 37 38 38 39 38 38 38 39 39 39 39 38 38 38 38 38
21 21 21 22 23 25 27 27 28 28 30 32 32 32 32 33 31 30 31 32 32 32 32 32 32 34 35 36 36 37 37 37 37 37 37 37 37 37 37 37 37 37 37 37
21 20 20 20 21 23 23 23 24 25 25 27 28 29 29 29 29 29 30 31 31 32 31 31 32 33 34 34 34 35 36 35 36 36 37 36 36 36 37 36 36 36 36 36
19 19 19 19 19 20 19 20 22 23 23 23 24 25 27 28 28 28 29 29 30 31 31 31 31 31 32 33 34 34 35 35 35 36 36 37 36 36 37 36 36 36 36 36
15 16 17 17 18 19 18 18 19 20 21 21 22 23 24 25 27 28 28 29 29 29 31 31 31 31 31 32 32 32 32 33 35 35 35 36 36 36 36 36 36 36 36 36
14 15 17 17 18 18 18 17 18 19 20 20 20 21 22 23 25 26 27 28 28 29 31 32 32 32 32 32 32 32 33 33 33 34 34 35 36 36 36 36 36 36 36 36
14 16 17 18 18 17 17 17 18 19 19 19 20 20 21 22 23 25 26 27 27 28 30 30 31 31 32 33 33 32 33 33 33 33 34 34 34 35 36 36 35 35 35 36
15 15 16 17 18 17 16 17 18 18 18 17 18 19 20 21 22 23 25 26 26 27 28 28 29 29 30 32 32 32 32 32 33 33 33 32 32 33 35 35 35 35 35 35
14 14 15 15 15 14 15 15 16 16 17 17 18 18 19 20 21 22 24 25 27 28 27 27 28 29 29 30 30 31 31 31 31 32 32 33 33 33 34 34 34 34 34 35
13 14 15 15 14 13 13 14 15 16 17 18 18 18 19 19 20 22 23 24 25 27 28 28 27 27 28 29 29 29 30 30 30 31 31 32 32 33 33 32 32 32 33 33
13 15 15 15 14 14 14 15 15 16 17 17 17 17 18 18 19 20 21 22 23 24 26 27 26 26 26 27 27 28 29 29 29 29 30 31 32 32 32 32 32 32 32 31
12 14 15 15 15 15 15 15 15 16 16 16 17 17 17 18 19 20 20 21 22 24 25 25 26 26 26 26 26 26 27 27 28 29 29 30 30 30 31 30 30 30 30 30
Wind_Direction
262 260 260 260 259 259 258 258 257 256 256 255 255 254 252 250 249 249 249 249 249 248 248 249 250 250 250 249 248 247 246 244 245 246 247 247 247 247 246 247 248 248 249 249
263 261 261 261 260 259 258 258 258 257 256 256 255 254 253 251 250 250 250 250 250 249 248 248 249 249 249 248 246 246 246 245 245 246 247 248 248 248 246 248 248 248 249 251
263 262 260 259 258 258 257 257 257 257 257 256 255 254 253 252 251 250 250 250 249 249 248 248 247 246 247 247 246 246 246 245 246 246 247 248 247 248 247 248 248 248 249 251
262 261 259 258 257 256 256 256 256 256 256 256 255 255 252 253 252 250 250 249 248 248 248 246 245 244 245 245 245 245 246 245 245 246 247 246 246 248 248 249 249 249 250 252
263 259 257 255 255 255 256 255 255 255 255 255 254 255 253 252 251 250 249 248 247 247 247 246 244 243 242 243 243 244 245 244 244 246 246 247 247 248 248 249 249 249 251 253
262 258 255 254 254 254 254 253 253 253 253 253 252 254 254 252 252 251 250 249 248 247 246 245 243 241 241 241 241 242 244 244 244 245 246 247 247 248 248 249 250 250 251 253
261 257 255 253 252 252 252 252 253 254 253 253 251 252 252 251 251 251 250 249 248 246 245 244 242 241 240 240 240 241 243 244 244 245 246 246 246 246 247 249 250 251 252 253
264 259 254 251 249 250 250 250 251 253 254 254 252 252 251 251 251 251 249 248 248 246 244 244 242 241 241 240 240 240 242 242 243 244 245 245 246 247 248 250 251 252 253 254
265 261 256 250 248 250 249 249 250 253 255 255 254 253 253 252 251 251 249 246 247 245 244 243 243 242 242 241 241 241 242 242 242 243 245 245 246 247 249 251 252 253 253 255
264 260 256 253 248 249 249 249 249 250 254 256 256 254 252 252 253 252 250 247 245 243 243 243 242 241 241 241 240 240 242 242 242 243 244 244 245 247 249 251 251 252 254 255
264 259 256 253 249 249 248 248 249 251 252 254 256 254 253 254 254 253 250 249 247 244 243 244 243 242 242 241 240 240 241 242 242 244 244 244 245 247 249 250 251 252 254 256
265 263 258 255 251 249 249 249 250 250 251 252 255 256 252 253 254 254 250 249 248 245 243 242 242 244 243 241 240 241 242 242 243 245 246 246 246 247 249 250 251 253 254 256
266 264 261 257 255 251 250 249 250 251 253 252 252 255 252 253 252 252 250 247 246 245 245 243 242 243 243 241 240 240 241 242 243 245 246 247 247 247 248 249 251 252 254 256
266 263 260 258 256 253 251 248 248 250 251 251 251 254 253 251 251 252 250 247 244 243 243 243 242 242 241 240 239 239 239 240 243 244 245 246 247 248 249 250 251 252 254 257
267 263 258 257 255 254 252 249 248 248 248 250 250 251 252 250 250 249 248 247 244 243 242 242 243 242 240 239 239 239 239 239 241 242 244 245 247 247 248 250 251 253 256 258
266 261 257 256 256 255 253 250 248 247 248 250 251 251 251 249 249 247 246 247 246 244 244 242 240 241 240 238 239 239 239 239 240 241 243 245 246 247 249 251 252 254 257 258
263 261 257 255 255 256 254 250 248 247 248 252 251 250 249 246 245 244 244 245 245 244 243 240 239 239 240 240 241 239 238 240 241 242 243 245 247 248 249 250 252 255 257 259
261 257 257 256 252 252 252 250 250 250 250 251 251 250 249 247 244 242 242 243 244 243 242 242 241 241 240 241 243 242 242 242 243 244 245 246 248 249 250 251 253 255 257 258
258 253 252 252 251 251 250 251 252 253 253 252 251 249 248 245 244 243 243 242 244 244 242 243 243 243 242 242 242 243 245 245 245 244 245 246 247 248 250 252 254 255 256 258
258 253 252 251 250 249 250 252 254 254 255 253 253 252 249 246 245 244 243 243 243 244 244 243 244 244 242 241 243 244 245 246 247 247 246 247 248 249 250 251 254 254 255 257
260 256 255 253 252 252 252 252 253 255 255 254 256 255 252 249 248 245 242 240 242 243 242 242 242 243 242 241 243 244 246 247 247 248 249 250 250 251 251 252 254 255 255 257
258 256 254 253 252 251 254 254 252 255 257 257 256 257 255 251 248 245 243 241 242 242 240 239 240 241 242 242 243 244 246 246 246 247 249 249 250 251 253 254 255 255 257 257
259 255 254 256 256 255 256 256 255 255 258 257 257 257 255 254 252 249 246 241 241 240 240 240 241 242 243 244 244 244 245 246 247 249 250 250 250 251 253 254 255 256 258 258
263 258 258 258 255 256 255 256 256 255 258 257 257 256 256 255 252 249 246 243 240 239 239 240 242 243 244 245 246 246 246 247 248 249 249 250 251 252 253 254 255 257 257 258
269 264 262 261 257 254 251 255 257 257 258 258 258 257 259 257 253 251 250 247 244 242 241 240 241 242 244 245 245 246 247 248 248 249 250 250 251 252 253 255 256 258 259 259
268 265 263 262 258 257 255 256 258 260 260 261 261 262 263 261 256 251 249 247 246 246 245 244 244 244 244 244 245 246 247 248 249 249 250 251 250 251 253 254 255 257 258 259
Height
5668 5669 5670 5673 5674 5675 5676 5677 5679 5681 5682 5683 5684 5687 5690 5692 5694 5697 5699 5701 5704 5707 5710 5712 5714 5716 5718 5721 5723 5726 5728 5730 5732 5734 5736 5738 5740 5742 5745 5747 5750 5752 5754 5756
5656 5656 5659 5660 5660 5662 5663 5665 5667 5669 5670 5671 5673 5675 5678 5681 5684 5686 5688 5691 5693 5696 5698 5701 5703 5705 5708 5711 5713 5716 5718 5721 5723 5725 5728 5730 5732 5733 5736 5738 5741 5743 5745 5747
5642 5645 5646 5646 5647 5649 5651 5653 5656 5656 5657 5659 5661 5664 5667 5670 5672 5674 5677 5679 5681 5684 5686 5689 5692 5695 5698 5700 5703 5706 5708 5711 5713 5716 5718 5720 5722 5724 5727 5729 5732 5734 5736 5737
5629 5631 5632 5633 5634 5636 5638 5642 5643 5644 5645 5647 5650 5651 5657 5658 5660 5663 5665 5667 5669 5672 5674 5677 5681 5684 5687 5690 5693 5696 5698 5701 5703 5706 5708 5711 5714 5716 5718 5720 5723 5724 5726 5728
5616 5618 5619 5620 5623 5624 5627 5629 5631 5632 5633 5635 5638 5639 5645 5647 5649 5652 5654 5656 5658 5661 5663 5666 5670 5673 5677 5680 5683 5686 5688 5691 5694 5697 5700 5702 5705 5707 5709 5711 5713 5715 5717 5719
5604 5605 5607 5609 5611 5612 5615 5617 5619 5620 5621 5623 5628 5629 5633 5636 5639 5641 5644 5646 5648 5650 5653 5656 5659 5663 5666 5669 5673 5676 5679 5682 5685 5688 5690 5693 5695 5698 5700 5702 5704 5706 5708 5710
5593 5594 5595 5598 5599 5601 5604 5606 5608 5608 5609 5613 5617 5618 5622 5626 5628 5630 5632 5635 5637 5640 5643 5646 5649 5652 5656 5659 5663 5666 5669 5672 5675 5678 5681 5684 5686 5689 5691 5693 5695 5697 5699 5701
5582 5584 5585 5587 5589 5591 5594 5596 5599 5600 5601 5604 5606 5607 5612 5615 5617 5619 5622 5624 5627 5630 5633 5636 5639 5643 5646 5649 5653 5656 5659 5663 5665 5668 5671 5674 5677 5679 5682 5684 5686 5688 5690 5691
5572 5574 5575 5577 5579 5582 5584 5586 5590 5591 5592 5594 5595 5598 5603 5604 5607 5610 5612 5614 5617 5620 5622 5626 5630 5633 5636 5639 5643 5646 5649 5653 5656 5659 5662 5664 5667 5670 5672 5675 5676 5678 5680 5682
5563 5565 5567 5568 5570 5572 5575 5578 5580 5581 5583 5584 5586 5589 5593 5595 5597 5600 5602 5605 5607 5610 5613 5616 5620 5623 5626 5629 5633 5636 5640 5643 5646 5649 5652 5655 5658 5660 5663 5664 5667 5669 5670 5672
5554 5556 5558 5560 5561 5564 5567 5569 5570 5573 5575 5577 5578 5582 5584 5586 5588 5590 5593 5595 5598 5601 5604 5607 5610 5613 5617 5620 5623 5627 5630 5633 5636 5640 5642 5645 5648 5650 5652 5655 5657 5659 5660 5662
5547 5548 5549 5552 5553 5555 5557 5560 5562 5565 5566 5567 5569 5574 5575 5577 5578 5581 5583 5585 5588 5591 5594 5598 5601 5604 5607 5610 5614 5617 5620 5623 5627 5630 5633 5635 5638 5640 5643 5645 5647 5649 5650 5652
5539 5540 5541 5544 5547 5547 5548 5550 5553 5555 5556 5558 5560 5566 5566 5568 5569 5571 5573 5576 5579 5582 5585 5588 5591 5594 5597 5600 5604 5607 5610 5614 5617 5620 5623 5625 5628 5631 5633 5635 5637 5639 5640 5642
5531 5532 5534 5536 5536 5538 5539 5542 5544 5546 5547 5548 5551 5555 5557 5558 5560 5562 5564 5566 5569 5572 5576 5578 5581 5585 5588 5591 5594 5598 5601 5604 5607 5610 5613 5616 5618 5621 5623 5625 5627 5629 5630 5631
5524 5525 5526 5527 5528 5529 5530 5533 5535 5536 5538 5540 5542 5544 5547 5549 5552 5553 5555 5557 5560 5563 5566 5570 5572 5575 5578 5581 5584 5588 5591 5594 5597 5600 5603 5605 5608 5610 5613 5615 5617 5619 5620 5621
5516 5517 5518 5520 5521 5521 5522 5525 5526 5528 5530 5531 5533 5536 5538 5540 5542 5544 5546 5549 5551 5554 5557 5560 5563 5565 5568 5571 5575 5578 5581 5585 5588 5591 5593 5596 5598 5601 5603 5605 5607 5608 5610 5611
5509 5510 5511 5513 5514 5514 5515 5518 5519 5520 5522 5523 5525 5528 5529 5531 5534 5536 5538 5541 5543 5546 5548 5551 5554 5557 5559 5562 5565 5568 5571 5575 5578 5581 5584 5587 5589 5591 5594 5596 5597 5599 5600 5601
5503 5504 5505 5506 5508 5508 5512 5511 5512 5513 5515 5516 5517 5519 5521 5523 5525 5528 5530 5532 5535 5537 5540 5543 5545 5548 5551 5553 5556 5559 5562 5565 5568 5571 5574 5577 5579 5582 5584 5586 5588 5589 5589 5590
5498 5499 5499 5500 5501 5502 5505 5505 5506 5507 5508 5509 5510 5512 5513 5515 5518 5520 5522 5524 5527 5529 5532 5534 5537 5540 5542 5545 5548 5551 5554 5556 5559 5562 5565 5567 5570 5572 5574 5576 5578 5579 5580 5580
5493 5493 5495 5495 5495 5497 5500 5501 5501 5502 5502 5503 5504 5505 5506 5508 5511 5513 5515 5517 5519 5521 5524 5526 5529 5531 5534 5537 5539 5542 5545 5548 5550 5553 5555 5558 5560 5562 5564 5566 5567 5568 5569 5570
5488 5489 5489 5490 5490 5491 5494 5495 5496 5498 5498 5497 5498 5498 5500 5501 5503 5505 5507 5509 5511 5513 5515 5518 5520 5523 5525 5528 5531 5533 5536 5538 5541 5543 5546 5548 5551 5552 5554 5556 5557 5559 5560 5560
5484 5484 5485 5485 5486 5489 5488 5489 5490 5490 5491 5491 5492 5493 5493 5494 5496 5497 5499 5501 5503 5505 5507 5509 5512 5514 5517 5519 5522 5525 5527 5529 5532 5534 5537 5539 5541 5543 5545 5546 5547 5549 5550 5551
5479 5480 5480 5481 5483 5483 5482 5483 5483 5484 5485 5486 5486 5487 5488 5489 5490 5491 5492 5494 5496 5498 5500 5502 5504 5506 5508 5511 5513 5516 5519 5521 5523 5525 5528 5530 5532 5534 5535 5536 5538 5539 5540 5541
5475 5475 5476 5476 5477 5477 5477 5478 5478 5479 5479 5480 5480 5481 5482 5482 5483 5485 5486 5487 5489 5490 5492 5495 5497 5499 5501 5503 5505 5508 5510 5512 5514 5516 5518 5520 5522 5524 5526 5527 5528 5529 5530 5531
5471 5471 5471 5471 5472 5472 5473 5473 5473 5474 5474 5474 5475 5475 5476 5476 5477 5478 5479 5480 5482 5484 5486 5487 5489 5492 5494 5495 5497 5500 5502 5504 5505 5507 5509 5511 5513 5515 5516 5517 5519 5520 5521 5521
5466 5466 5466 5467 5467 5467 5468 5468 5468 5469 5469 5469 5469 5470 5470 5470 5471 5472 5473 5474 5475 5477 5479 5480 5482 5484 5486 5488 5490 5492 5494 5496 5498 5499 5501 5502 5504 5506 5507 5508 5510 5510 5512 5512